Regional Weather Roundup
Issued by NWS Mt. Holly, NJ

Home | Current Version | Previous Version | Text Only | Print | Product List | Glossary On
Versions: 1 2 3 4 5 6 7 8 9 10 11 12 13 14 15 16 17 18 19 20 21 22 23 24 25 26 27 28 29 30 31 32 33 34 35 36 37 38 39 40 41 42 43 44 45 46 47 48 49 50
000
ASUS41 KPHI 281812
RWRPHI

REGIONAL WEATHER ROUNDUP
NATIONAL WEATHER SERVICE MOUNT HOLLY NJ
200 PM EDT SAT MAY 28 2016

NOTE:  "FAIR" INDICATES FEW OR NO CLOUDS BELOW 12,000 FEET WITH NO
SIGNIFICANT WEATHER AND/OR OBSTRUCTIONS TO VISIBILITY.

 * = STATION DOES NOT REPORT PRECIPITATION (E.G. RAIN, SNOW, ETC.)
        OR FOG.

NJZ015>026-281900-
SOUTHERN NEW JERSEY

CITY           SKY/WX    TMP DP  RH WIND       PRES   REMARKS
POMONA         SUNNY     84  65  52 S13       30.15F
6HR MIN TEMP:  71; 6HR MAX TEMP:  86;

WILDWOOD*      SUNNY    N/A N/A N/A S13G18    30.18F
MILLVILLE      SUNNY     84  65  52 VRB6      30.16F
WRIGHTSTOWN    MOSUNNY   90  68  47 W14       30.10F HX  94
MOUNT HOLLY    MOSUNNY   88  67  49 VRB6      30.12F HX  91
TRENTON        SUNNY     89  67  47 SW13      30.11F HX  92
6HR MIN TEMP:  72; 6HR MAX TEMP:  89;


$$
NJZ001>014-281900-
NORTHERN NEW JERSEY

CITY           SKY/WX    TMP DP  RH WIND       PRES   REMARKS
SUSSEX         CLOUDY    87  66  49 VRB3      30.10F
ANDOVER*         N/A     89  65  44 VRB5      30.11F HX  91
MORRISTOWN     MOSUNNY   90  68  48 W9G17     30.10F HX  93
NEWARK         MOSUNNY   94  63  35 W10       30.09F HX  95
TETERBORO      PTSUNNY   90  62  39 SW9       30.07F HX  90
CALDWELL       SUNNY     92  64  39 SW8       30.09F HX  93
SOMERVILLE     SUNNY     89  67  47 VRB7      30.08F HX  92
ALLAIRE*       MOSUNNY   87  68  52 SE13      30.13F HX  90
TOMS RIVER*    PTSUNNY   91  63  38 SW14      30.12F HX  92

$$
PAZ043-044-047-054-055-060>062-066>071-281900-
EASTERN PENNSYLVANIA

CITY           SKY/WX    TMP DP  RH WIND       PRES   REMARKS
PHILADELPHIA   MOSUNNY   88  65  46 SW13      30.13F HX  90
6HR MIN TEMP:  73; 6HR MAX TEMP:  88;

NORTH PHILA    SUNNY     89  68  49 SW13G18   30.13F HX  93
BLUE BELL*     SUNNY     86  68  54 SW9       30.12F
DOYLESTOWN     SUNNY     86  66  51 S9        30.12F
QUAKERTOWN*    SUNNY     90  68  48 SW8       30.13F HX  93
PERKASIE*      FAIR      86  68  54 SW7       30.14F
POTTSTOWN      SUNNY     87  68  52 S9        30.13F HX  90
LANCASTER      MOSUNNY   87  69  54 VRB7      30.12F HX  91
COATESVILLE    SUNNY     84  68  58 VRB6      30.16F
READING        SUNNY     90  67  46 S8        30.10F HX  93
6HR MIN TEMP:  74; 6HR MAX TEMP:  90;

ALLENTOWN      MOSUNNY   91  68  46 S7        30.11F HX  95
6HR MIN TEMP:  71; 6HR MAX TEMP:  91;

MOUNT POCONO   CLOUDY    83  61  47 S10G17    30.17F
6HR MIN TEMP:  71; 6HR MAX TEMP:  85;

HAZLETON       CLOUDY    82  64  54 CALM      30.19S
LEHIGHTON      FAIR      88  64  45 SW5       30.11F
WILKES BARRE   MOSUNNY   91  65  41 NW12      30.11F HX  93

$$
DEZALL-MDZ008-012-015-019-020-281900-
DELAWARE AND EASTERN MARYLAND

CITY           SKY/WX    TMP DP  RH WIND       PRES   REMARKS
WILMINGTON     SUNNY     85  69  58 S12       30.14F
6HR MIN TEMP:  72; 6HR MAX TEMP:  85;

DOVER          SUNNY     89  71  55 S8        30.13F HX  94
GEORGETOWN     SUNNY     87  64  46 SW7       30.16F
6HR MIN TEMP:  71; 6HR MAX TEMP:  88;

EASTON         SUNNY     86  72  62 SW9       30.19  HX  92
PATUXENT       SUNNY     78  66  66 SE13      30.17F
OCEAN CITY     SUNNY     73  64  73 S10G22    30.20F
WALLOPS ISLAND FAIR      79  61  53 S15       30.21F
CAMBRIDGE      SUNNY     81  64  57 S10       30.17S
SALISBURY      SUNNY     85  63  47 S9        30.17F

$$
PAZ001-021-NYZ056-072-MDZ011-DCZ001-281900-
OTHER NEARBY LOCATIONS

CITY           SKY/WX    TMP DP  RH WIND       PRES   REMARKS
HARRISBURG     MOSUNNY   89  69  51 SE5       30.11F HX  93
STATE COLLEGE  PTSUNNY   81  68  65 W6        30.15S
WILLIAMSPORT   SUNNY     89  65  44 E3        30.08F HX  91
BINGHAMTON     SUNNY     85  57  38 VRB3      30.15F
NEW YORK CITY  SUNNY     90  66  45 MISG      30.12F HX  92
BALTIMORE      MOSUNNY   87  67  51 SE9       30.13F HX  90
WASHINGTON DC  FAIR      86  69  56 S13       30.14F HX  90

$$



USA.gov is the U.S. government's official web portal to all federal, state and local government web resources and services.